This is the latest recevied weather packets stored in our database for station/object DK4DAX-2. If no packets are shown the sender has not sent any weather packets the latest 10 day(s).
| Time | Temp. | Humidity | Pressure | Rain* | Wind** | Luminosity | Snow |
|---|---|---|---|---|---|---|---|
| 1788612303 | 25.56° C | 33% | 1020.2 hPa | 0 mm | - | - | - |
| 1788611404 | 23.89° C | 37% | 1019.9 hPa | 0 mm | - | - | - |
| 1788610503 | 24.44° C | 37% | 1019.8 hPa | 0 mm | - | - | - |
| 1788609603 | 23.89° C | 36% | 1019.7 hPa | 0 mm | - | - | - |
| 1788608704 | 25.56° C | 32% | 1019.6 hPa | 0 mm | - | - | - |
| 1788607803 | 26.11° C | 33% | 1019.5 hPa | 0 mm | - | - | - |
| 1788606903 | 23.33° C | 41% | 1019.8 hPa | 0 mm | - | - | - |
| 1788606004 | 24.44° C | 39% | 1019.7 hPa | 0 mm | - | - | - |
| 1788605103 | 24.44° C | 42% | 1019.6 hPa | 0 mm | - | - | - |
| 1788604203 | 23.89° C | 44% | 1019.6 hPa | 0 mm | - | - | - |
| 1788603303 | 21.67° C | 51% | 1019.5 hPa | 0 mm | - | - | - |
| 1788602403 | 20.56° C | 53% | 1019.4 hPa | 0 mm | - | - | - |
| 1788601503 | 21.11° C | 51% | 1019.5 hPa | 0 mm | - | - | - |
| 1788600603 | 21.67° C | 51% | 1019.2 hPa | 0 mm | - | - | - |
| 1788599703 | 21.67° C | 53% | 1019.1 hPa | 0 mm | - | - | - |
| 1788598803 | 21.11° C | 55% | 1019.1 hPa | 0 mm | - | - | - |
| 1788597904 | 20.56° C | 58% | 1019 hPa | 0 mm | - | - | - |
| 1788597003 | 20.56° C | 60% | 1018.7 hPa | 0 mm | - | - | - |
| 1788596103 | 21.11° C | 58% | 1018.6 hPa | 0 mm | - | - | - |
| 1788595203 | 21.11° C | 62% | 1018.3 hPa | 0 mm | - | - | - |
| 1788594303 | 20.56° C | 66% | 1018.2 hPa | 0 mm | - | - | - |
| 1788593403 | 19.44° C | 74% | 1018 hPa | 0 mm | - | - | - |
| 1788592503 | 18.33° C | 79% | 1017.8 hPa | 0 mm | - | - | - |
| 1788591603 | 17.78° C | 79% | 1017.6 hPa | 0 mm | - | - | - |
| 1788590703 | 17.78° C | 80% | 1017.5 hPa | 0 mm | - | - | - |
* Rain latest hour (hover to see other rain measurements)
** Current wind speed in m/s (hover to see current wind gust speed)